Temperature
16 15 15 14 13 13 12 12 12 11 11 11 10 10 10 9 9 9 9 9 8 8 8 8 7 7 6 6 6 5 5 4 3 3 3 3 2 2 1 1 1 0 0
15 15 14 13 12 12 12 11 11 11 10 10 10 10 9 9 9 9 9 8 8 8 8 7 7 7 6 6 5 5 4 4 3 3 3 2 2 1 1 1 0 -0 -1
15 14 13 12 12 11 11 11 10 10 10 10 9 9 9 9 9 9 8 8 8 8 7 7 7 6 6 5 5 4 4 3 2 2 2 2 1 1 0 0 -0 -1 -1
14 13 12 12 11 11 11 10 10 10 9 9 9 9 9 9 8 8 8 8 8 7 7 6 6 6 5 4 4 4 3 2 2 1 1 1 0 0 -1 -1 -1 -1 -2
14 13 12 12 11 11 10 10 10 9 9 9 9 9 9 8 8 8 8 7 7 7 6 6 5 5 4 4 3 3 2 2 1 1 0 -0 -0 -1 -2 -2 -3 -3 -3
13 13 12 11 11 10 10 9 9 9 9 9 9 8 8 8 8 7 7 7 7 6 6 5 5 4 4 3 3 2 2 1 0 -0 -1 -1 -1 -2 -2 -3 -4 -4 -4
13 12 11 11 10 10 9 9 9 9 8 8 8 8 8 7 7 7 7 6 6 6 5 5 4 4 3 3 2 1 1 0 -0 -1 -1 -2 -2 -3 -3 -4 -4 -5 -5
13 12 11 10 10 9 9 8 8 8 8 8 8 8 7 7 7 6 6 6 5 5 5 4 4 3 3 2 1 1 0 -0 -1 -2 -2 -3 -3 -4 -4 -5 -5 -6 -6
12 12 11 10 9 9 8 8 8 8 8 7 7 7 7 6 6 6 5 5 5 4 4 3 3 2 2 1 0 -0 -1 -1 -2 -2 -3 -3 -4 -5 -5 -5 -6 -6 -6
12 11 11 10 9 9 8 8 8 7 7 7 6 6 6 6 5 5 5 4 4 4 3 3 2 1 1 0 -1 -1 -1 -2 -3 -3 -3 -4 -5 -5 -6 -6 -6 -7 -7
12 11 10 9 9 8 8 7 7 7 6 6 6 6 5 5 5 4 4 4 3 3 2 2 1 1 -0 -1 -1 -2 -2 -3 -4 -4 -4 -5 -5 -6 -6 -7 -7 -7 -8
11 10 10 9 8 8 7 7 7 6 6 6 5 5 5 4 4 4 3 3 3 2 2 1 0 -0 -1 -2 -2 -3 -3 -4 -4 -5 -5 -6 -6 -6 -7 -7 -7 -8 -8
11 10 9 8 8 7 7 7 6 6 5 5 5 5 4 4 4 3 3 2 2 1 1 0 -1 -1 -2 -2 -3 -3 -4 -5 -5 -6 -6 -7 -7 -7 -7 -8 -8 -8 -8
10 9 8 8 7 7 6 6 6 5 5 5 4 4 4 3 3 2 2 1 1 0 -0 -1 -1 -2 -3 -3 -4 -4 -5 -6 -6 -7 -7 -7 -8 -8 -8 -8 -8 -9 -9
10 9 8 7 7 6 6 5 5 5 4 4 4 3 3 3 2 2 1 1 0 -0 -1 -2 -2 -3 -4 -4 -5 -5 -6 -6 -7 -7 -8 -8 -8 -8 -9 -9 -9 -9 -9
9 8 7 7 6 6 5 5 4 4 3 3 3 3 2 2 1 1 0 -0 -1 -2 -2 -3 -3 -4 -5 -5 -6 -6 -7 -7 -8 -8 -8 -9 -9 -9 -9 -9 -10 -10 -10
9 8 7 6 6 5 5 4 4 3 3 2 2 2 1 1 0 -0 -1 -1 -2 -3 -3 -4 -4 -5 -6 -6 -7 -7 -8 -8 -8 -9 -9 -9 -10 -10 -10 -10 -10 -10 -10
8 7 6 6 5 4 4 4 3 3 2 2 1 1 0 -0 -1 -1 -2 -2 -3 -4 -4 -5 -5 -6 -7 -7 -8 -8 -9 -9 -9 -10 -10 -10 -10 -10 -10 -10 -10 -11 -11
7 6 5 5 4 4 3 3 2 2 2 1 0 -0 -1 -1 -2 -2 -3 -3 -4 -4 -5 -6 -6 -7 -7 -8 -8 -9 -9 -10 -10 -10 -10 -11 -11 -11 -11 -11 -11 -11 -11
6 5 5 4 4 3 3 2 2 1 1 0 -0 -1 -1 -2 -2 -3 -3 -4 -5 -5 -6 -6 -7 -7 -8 -9 -9 -9 -10 -10 -10 -11 -11 -11 -11 -11 -11 -11 -11 -11 -11
5 4 4 3 3 2 2 1 1 1 0 -0 -1 -2 -2 -3 -3 -4 -4 -5 -6 -6 -6 -7 -7 -8 -9 -9 -9 -10 -10 -10 -11 -11 -11 -11 -11 -12 -12 -12 -12 -12 -12
4 4 3 3 2 2 1 1 0 -0 -1 -1 -2 -3 -3 -4 -4 -5 -5 -6 -6 -7 -7 -8 -8 -8 -9 -9 -10 -10 -10 -11 -11 -11 -11 -12 -12 -12 -12 -12 -12 -12 -12
3 3 2 2 1 1 0 -0 -1 -1 -2 -2 -3 -3 -4 -5 -5 -5 -6 -6 -7 -7 -8 -8 -8 -9 -9 -10 -10 -10 -11 -11 -11 -11 -12 -12 -12 -12 -12 -12 -12 -12 -12
2 2 1 1 0 -0 -1 -1 -1 -2 -3 -3 -4 -4 -5 -5 -6 -6 -6 -7 -7 -8 -8 -8 -9 -9 -9 -10 -10 -10 -11 -11 -11 -12 -12 -12 -12 -12 -12 -12 -12 -12 -12
2 1 1 0 -0 -1 -1 -2 -2 -3 -3 -4 -4 -5 -5 -6 -6 -6 -7 -7 -8 -8 -8 -8 -9 -9 -9 -10 -10 -10 -11 -11 -11 -12 -12 -12 -12 -12 -12 -13 -13 -13 -12
1 0 -0 -1 -1 -2 -2 -3 -3 -4 -4 -5 -5 -6 -6 -6 -7 -7 -7 -8 -8 -8 -8 -9 -9 -9 -9 -10 -10 -10 -11 -11 -11 -12 -12 -12 -12 -12 -12 -12 -12 -12 -12
Wind_Speed
11 12 12 12 12 12 12 13 12 11 12 14 14 13 13 12 12 11 9 10 10 8 7 8 7 5 5 4 4 4 4 4 5 4 3 3 3 5 9 11 13 13 14
10 10 11 11 12 12 12 12 12 12 13 13 13 13 13 12 12 12 12 11 11 10 9 8 7 5 6 4 4 5 4 5 5 6 4 3 5 5 6 7 10 11 13
9 10 10 11 12 12 12 12 12 12 12 11 12 13 12 12 12 12 11 11 11 10 9 9 8 7 6 4 5 5 4 4 5 5 5 3 4 4 5 5 6 8 12
9 10 11 11 12 11 11 11 11 12 12 12 11 11 11 11 11 10 10 10 9 8 8 8 8 8 8 7 6 6 5 4 4 5 5 5 5 5 4 5 6 5 6
10 10 10 9 9 10 10 10 10 10 11 10 10 9 9 9 10 10 10 9 9 7 6 6 6 8 9 7 5 5 5 4 4 4 5 4 4 4 5 4 6 6 6
10 9 9 9 9 10 10 10 10 9 9 9 10 10 10 8 12 15 12 9 8 8 6 5 5 6 7 9 9 8 7 5 5 4 5 6 7 6 5 5 5 6 5
9 9 9 10 10 10 10 10 10 10 9 9 9 9 9 9 13 15 15 9 8 7 7 5 4 4 6 4 7 8 8 10 9 5 6 7 6 6 5 6 6 7 7
10 9 9 10 10 10 10 10 9 8 9 8 8 9 8 8 12 13 13 8 6 6 6 6 5 4 4 4 4 4 5 6 8 6 6 7 7 7 7 7 7 7 7
10 10 10 11 11 11 10 9 8 8 8 7 7 8 8 7 10 11 12 7 5 4 4 4 4 4 6 6 4 5 5 6 8 11 12 13 14 14 11 5 4 6 8
10 10 10 10 11 11 10 9 6 8 8 8 7 6 7 6 9 10 11 6 5 3 2 2 4 4 5 5 3 4 6 6 4 5 7 9 9 10 12 6 4 6 7
9 10 9 10 10 10 9 7 9 9 9 8 7 5 5 6 8 9 10 6 5 4 3 2 2 4 5 6 5 3 7 6 3 4 4 5 4 5 5 6 5 5 6
11 11 10 9 9 9 10 9 9 10 10 8 7 6 4 3 5 7 8 6 6 4 3 2 3 4 5 5 5 6 9 7 1 2 3 4 4 5 5 5 7 7 8
12 11 11 10 9 9 11 11 8 8 8 7 6 5 4 3 3 5 6 5 5 3 2 2 2 2 2 3 5 7 5 2 2 3 4 5 4 5 4 4 5 6 7
14 12 11 11 10 8 8 8 8 7 7 6 6 5 4 3 2 2 2 2 3 2 2 1 1 2 2 2 3 4 2 2 3 3 4 4 4 3 4 3 3 3 4
14 12 11 10 11 9 8 6 7 5 7 7 6 6 6 4 3 5 4 3 3 3 3 2 1 1 1 2 2 2 2 3 3 3 3 4 4 4 4 3 3 2 3
14 11 10 9 9 9 10 9 11 9 11 10 9 7 4 5 6 5 4 3 3 3 3 1 0 1 1 2 3 3 3 3 3 4 4 4 4 5 5 4 3 3 4
14 12 10 10 10 9 9 10 9 9 12 12 11 10 8 7 6 5 4 4 3 3 2 1 1 2 2 3 3 3 3 4 3 3 4 4 4 4 4 4 4 3 4
13 13 11 9 9 9 8 8 8 8 6 5 6 8 8 7 6 5 4 4 3 2 1 1 2 2 2 3 3 3 4 4 3 3 4 4 4 4 4 4 4 3 4
12 10 10 9 9 8 8 8 7 7 7 5 4 4 6 6 6 5 4 3 1 0 1 1 2 2 2 3 3 3 4 4 4 4 4 4 4 4 4 4 4 6 4
11 15 13 10 9 9 8 8 7 7 6 5 4 3 2 3 2 2 2 1 1 1 1 2 2 3 3 3 3 3 4 4 4 4 4 4 4 3 4 5 4 4 4
11 12 15 11 8 8 7 7 7 6 5 4 3 2 3 2 2 1 0 0 1 1 2 2 3 3 3 3 3 4 4 4 4 4 4 4 3 3 3 4 4 4 4
11 10 9 9 8 7 7 6 6 6 5 4 2 2 2 2 1 0 1 1 1 2 2 2 3 3 3 3 4 4 4 5 4 4 4 4 3 4 3 3 4 3 3
11 11 10 9 8 10 8 6 6 5 4 3 2 1 1 0 0 1 1 2 2 2 3 3 3 4 4 5 5 4 5 5 5 5 5 4 4 4 4 4 4 4 3
11 11 10 9 8 7 7 6 5 4 3 2 2 1 1 1 1 2 2 2 3 3 3 4 4 5 7 7 7 7 8 9 9 7 6 6 5 4 4 4 4 4 4
10 10 9 8 7 7 6 5 4 3 2 2 1 1 1 1 2 2 3 3 4 4 5 5 5 6 8 9 9 9 11 13 12 10 7 5 5 5 5 5 4 4 3
10 9 8 7 7 6 5 4 3 3 2 1 1 1 1 2 3 3 3 3 4 4 5 5 7 9 10 10 11 12 13 13 13 13 8 4 5 5 5 4 5 4 4
Wind_Direction
184 184 183 185 183 180 182 184 181 176 175 179 180 178 178 179 177 177 177 172 174 174 174 181 190 180 183 186 181 184 193 186 231 266 252 256 259 269 283 287 288 286 287
178 177 180 177 175 178 181 180 175 176 178 179 176 177 179 179 178 178 177 177 178 181 183 183 192 183 190 189 189 198 203 200 211 255 270 263 257 262 267 277 282 282 280
166 168 171 172 174 179 179 174 173 173 173 173 174 178 179 178 179 180 178 179 182 183 182 186 188 181 198 200 201 207 210 212 211 235 264 260 266 268 277 276 274 278 282
161 166 171 175 177 176 172 170 171 170 171 174 177 178 176 174 175 174 172 174 176 178 180 184 185 190 199 199 206 212 209 214 218 234 257 264 263 267 263 274 285 270 277
161 168 174 170 166 162 163 165 164 166 170 170 168 168 167 169 174 169 169 169 169 172 178 186 191 198 204 202 206 206 199 212 224 239 256 269 269 272 266 261 277 284 275
164 169 161 156 156 159 160 157 157 160 161 161 165 166 168 175 176 175 169 167 168 172 180 187 195 204 217 225 234 230 216 216 227 235 255 263 270 263 264 267 277 292 291
161 159 156 155 156 158 154 153 158 160 156 159 162 163 169 172 173 175 174 165 167 175 178 180 192 208 218 222 246 254 252 252 251 245 248 256 266 263 267 273 267 267 272
158 157 156 155 154 151 151 155 155 153 156 158 160 163 162 170 172 172 169 157 159 171 177 183 193 210 216 218 219 239 251 257 262 257 242 251 253 256 250 261 270 275 268
161 161 160 155 151 151 154 154 149 148 149 150 156 156 156 159 166 165 157 145 153 166 172 178 189 211 241 248 228 240 259 266 270 272 274 277 283 287 288 285 282 287 292
166 160 155 152 151 154 154 147 140 141 141 138 135 144 149 150 157 159 153 145 153 160 164 187 210 228 250 260 233 229 258 264 262 279 284 290 292 295 297 288 267 279 289
145 140 141 144 145 143 136 134 134 130 127 126 124 122 130 141 152 157 157 154 162 164 179 203 229 254 266 270 268 241 268 287 263 265 274 279 283 281 280 274 256 252 269
132 131 132 132 131 131 128 126 128 130 128 127 123 113 106 123 140 157 163 163 160 163 188 204 225 256 271 279 284 290 298 309 320 298 289 284 285 282 278 274 271 263 255
127 127 125 121 120 128 131 131 129 130 132 135 134 133 128 118 138 152 157 156 157 152 172 205 242 270 289 297 301 305 314 317 299 292 288 283 274 271 276 283 285 283 281
127 126 125 123 118 114 118 127 132 136 135 136 138 140 134 124 129 137 136 133 128 118 106 72 31 7 4 327 314 316 314 291 292 278 284 282 284 286 286 281 284 297 300
125 125 123 121 121 114 106 109 122 133 147 147 152 151 149 157 176 160 145 141 142 145 119 89 62 27 342 321 314 303 302 310 308 296 293 297 297 297 298 292 277 283 281
129 129 127 125 122 120 113 94 81 97 106 110 119 123 118 121 122 123 117 108 104 112 99 94 100 287 282 287 292 296 294 294 292 294 294 294 297 296 299 299 289 279 283
134 133 130 129 128 127 125 122 112 88 86 93 101 106 105 107 106 109 107 94 84 89 88 103 258 273 274 277 278 278 281 285 286 289 291 291 295 296 297 300 300 293 290
126 127 128 129 128 127 126 126 127 126 116 87 81 93 97 97 94 92 92 85 72 69 104 228 259 268 273 277 281 284 287 293 292 290 287 286 289 293 296 296 294 287 291
124 125 122 121 119 120 120 119 119 119 119 116 98 86 86 86 81 77 78 93 136 205 260 267 267 271 275 278 280 281 281 282 283 281 281 282 285 288 293 296 293 298 300
119 124 124 122 120 120 120 120 120 120 120 119 118 117 97 88 88 73 68 93 156 240 260 268 271 273 274 274 277 279 281 281 282 277 278 280 278 276 284 289 288 288 286
120 123 121 118 119 121 122 122 124 125 125 123 122 127 126 124 134 148 174 219 238 258 269 273 276 279 277 275 274 277 278 280 278 277 279 278 277 278 280 282 282 280 285
121 120 120 120 119 119 119 120 122 123 126 124 112 95 88 86 115 184 254 270 269 265 262 264 268 265 261 260 264 271 275 276 276 274 274 272 270 272 275 281 284 281 281
119 118 116 115 116 121 116 115 118 121 123 124 126 120 105 111 244 266 276 282 281 280 283 276 272 273 275 273 266 256 261 267 269 264 265 269 269 270 270 273 278 279 277
119 120 121 120 118 119 121 121 120 122 126 132 140 156 185 229 263 278 282 283 285 285 288 285 277 275 278 285 282 275 270 271 272 264 252 253 260 265 262 264 268 268 270
118 120 122 124 125 125 125 125 125 127 130 143 164 194 243 268 275 280 281 281 283 282 284 287 285 284 283 283 284 284 285 286 283 274 251 239 246 248 251 255 258 263 264
118 119 120 121 124 127 131 134 135 137 146 171 205 236 260 273 278 281 281 280 281 282 283 286 284 284 285 286 286 288 290 289 286 283 267 233 233 242 241 245 248 251 254
Height
1419 1423 1427 1432 1437 1442 1448 1453 1458 1463 1468 1472 1476 1480 1484 1488 1491 1494 1497 1499 1502 1504 1505 1507 1508 1509 1509 1509 1509 1509 1508 1507 1504 1503 1502 1501 1499 1498 1495 1493 1490 1487 1484
1415 1419 1423 1428 1433 1438 1443 1448 1454 1458 1463 1467 1472 1475 1479 1483 1486 1489 1491 1494 1497 1499 1501 1502 1503 1504 1504 1505 1505 1504 1504 1502 1500 1497 1496 1495 1494 1492 1489 1486 1484 1481 1478
1411 1415 1419 1424 1429 1434 1439 1444 1449 1454 1458 1463 1467 1470 1474 1478 1481 1484 1487 1490 1492 1494 1496 1497 1499 1499 1500 1500 1500 1499 1499 1497 1495 1492 1490 1489 1487 1485 1482 1480 1477 1474 1472
1408 1412 1416 1420 1425 1430 1435 1440 1445 1450 1454 1458 1462 1466 1469 1473 1476 1479 1482 1485 1487 1489 1491 1492 1494 1494 1495 1495 1495 1494 1493 1491 1490 1487 1485 1483 1481 1479 1476 1472 1469 1467 1464
1405 1409 1413 1418 1422 1427 1431 1436 1441 1446 1450 1454 1458 1462 1465 1468 1471 1474 1477 1480 1482 1484 1486 1487 1489 1489 1490 1490 1489 1489 1487 1486 1484 1481 1479 1476 1474 1472 1469 1466 1462 1458 1456
1403 1407 1411 1415 1419 1424 1428 1433 1438 1442 1446 1450 1454 1457 1461 1463 1467 1470 1473 1475 1477 1479 1481 1483 1484 1484 1485 1484 1484 1483 1482 1480 1478 1476 1473 1471 1468 1466 1463 1460 1456 1452 1448
1401 1405 1408 1412 1416 1421 1425 1430 1434 1439 1443 1447 1450 1453 1457 1460 1463 1465 1468 1470 1473 1475 1476 1478 1478 1479 1479 1479 1478 1477 1476 1474 1473 1471 1467 1465 1462 1460 1457 1453 1450 1446 1442
1398 1402 1406 1410 1414 1418 1423 1427 1432 1436 1440 1443 1447 1450 1453 1456 1458 1461 1463 1466 1468 1470 1471 1472 1473 1474 1474 1473 1472 1471 1470 1468 1467 1464 1462 1459 1456 1454 1451 1448 1444 1440 1436
1396 1399 1403 1407 1411 1416 1420 1424 1429 1433 1437 1440 1443 1446 1449 1452 1455 1457 1459 1461 1463 1465 1466 1467 1468 1468 1468 1467 1465 1464 1462 1462 1460 1458 1455 1453 1450 1448 1445 1442 1438 1434 1429
1393 1397 1401 1405 1409 1413 1418 1422 1426 1430 1434 1437 1440 1443 1446 1448 1451 1453 1455 1457 1459 1460 1461 1462 1462 1462 1462 1460 1459 1457 1456 1454 1453 1450 1448 1446 1443 1441 1439 1436 1432 1429 1424
1391 1395 1399 1403 1408 1412 1416 1420 1424 1428 1431 1434 1437 1440 1443 1445 1448 1450 1451 1453 1454 1455 1456 1457 1457 1456 1456 1455 1453 1452 1450 1448 1445 1443 1440 1438 1436 1434 1432 1429 1427 1424 1420
1389 1393 1397 1402 1406 1410 1414 1418 1422 1425 1429 1432 1435 1437 1440 1442 1444 1446 1447 1449 1450 1450 1451 1451 1451 1451 1450 1449 1448 1446 1444 1442 1439 1437 1434 1432 1430 1427 1425 1423 1420 1418 1415
1386 1391 1395 1400 1404 1408 1412 1416 1420 1423 1426 1429 1432 1434 1437 1439 1441 1442 1444 1445 1445 1446 1446 1446 1446 1445 1444 1443 1442 1440 1438 1436 1433 1431 1428 1426 1424 1422 1419 1416 1414 1412 1409
1384 1389 1394 1398 1402 1407 1411 1415 1418 1421 1424 1427 1429 1432 1434 1436 1437 1439 1440 1440 1441 1441 1441 1441 1440 1440 1439 1437 1436 1434 1432 1430 1428 1425 1423 1421 1419 1416 1414 1411 1409 1406 1404
1383 1387 1392 1397 1401 1405 1409 1414 1417 1420 1423 1426 1428 1430 1431 1433 1434 1435 1436 1436 1436 1437 1436 1436 1435 1434 1433 1432 1430 1428 1427 1425 1423 1420 1418 1416 1413 1411 1409 1407 1405 1402 1400
1381 1386 1391 1395 1400 1404 1408 1412 1415 1419 1421 1424 1426 1427 1428 1430 1431 1431 1432 1432 1432 1432 1432 1430 1430 1429 1427 1426 1424 1423 1421 1419 1417 1415 1413 1411 1409 1407 1405 1403 1401 1399 1396
1380 1385 1389 1394 1398 1402 1406 1410 1413 1417 1419 1421 1423 1424 1426 1427 1427 1428 1428 1428 1428 1427 1427 1426 1425 1424 1423 1421 1420 1418 1416 1415 1413 1411 1409 1407 1405 1403 1401 1399 1397 1395 1393
1380 1385 1389 1393 1397 1402 1406 1409 1412 1415 1417 1419 1421 1422 1423 1424 1424 1424 1424 1424 1423 1423 1422 1421 1420 1419 1418 1416 1415 1413 1412 1410 1408 1406 1405 1403 1401 1399 1397 1396 1394 1392 1390
1379 1384 1389 1393 1397 1401 1405 1408 1411 1413 1415 1416 1418 1419 1420 1420 1420 1421 1420 1420 1419 1419 1418 1417 1416 1415 1413 1412 1410 1409 1407 1405 1404 1402 1401 1399 1397 1396 1394 1393 1391 1390 1388
1379 1384 1388 1392 1396 1400 1403 1406 1409 1411 1413 1414 1415 1416 1416 1417 1417 1417 1417 1416 1416 1415 1414 1413 1412 1410 1409 1407 1406 1404 1402 1401 1399 1398 1396 1395 1394 1392 1391 1390 1388 1387 1385
1379 1384 1388 1392 1396 1399 1402 1405 1407 1409 1410 1411 1413 1413 1413 1414 1414 1413 1413 1413 1412 1411 1410 1408 1407 1406 1404 1403 1401 1400 1398 1397 1395 1394 1392 1391 1390 1389 1388 1387 1385 1384 1383
1379 1383 1388 1391 1395 1398 1401 1403 1405 1407 1408 1409 1410 1410 1411 1411 1410 1410 1410 1409 1408 1407 1406 1404 1403 1401 1400 1398 1397 1395 1394 1392 1391 1390 1389 1387 1386 1385 1385 1384 1382 1381 1380
1380 1383 1387 1391 1394 1397 1399 1401 1403 1404 1405 1406 1407 1407 1408 1407 1407 1407 1406 1405 1404 1403 1402 1400 1398 1397 1396 1394 1393 1391 1389 1388 1387 1386 1385 1384 1383 1382 1381 1381 1380 1379 1378
1379 1383 1386 1390 1392 1395 1397 1399 1401 1402 1403 1404 1404 1404 1404 1404 1404 1403 1402 1401 1400 1399 1397 1396 1394 1393 1391 1390 1388 1387 1385 1384 1383 1382 1381 1380 1379 1379 1378 1378 1377 1376 1375
1379 1382 1386 1388 1391 1393 1395 1397 1398 1399 1400 1401 1401 1401 1401 1401 1400 1399 1398 1397 1396 1394 1393 1392 1390 1388 1387 1385 1383 1382 1381 1380 1379 1378 1377 1377 1376 1375 1375 1375 1374 1374 1373
1379 1382 1385 1387 1389 1391 1393 1394 1396 1397 1398 1398 1398 1398 1398 1397 1396 1395 1394 1393 1392 1390 1389 1387 1386 1384 1382 1381 1379 1378 1377 1376 1375 1374 1374 1373 1373 1372 1372 1372 1372 1371 1371